TimeCDT,TemperatureF,Dew PointF,Humidity,Sea Level PressureIn,VisibilityMPH,Wind Direction,Wind SpeedMPH,Gust SpeedMPH,PrecipitationIn,Events,Conditions,WindDirDegrees,DateUTC
12:15 AM,69.8,64.4,83,30.13,10.0,Calm,Calm,-,N/A,,Clear,0,2013-08-01 05:15:00
12:35 AM,69.8,64.4,83,30.13,9.0,Calm,Calm,-,N/A,,Clear,0,2013-08-01 05:35:00
12:55 AM,69.8,64.4,83,30.12,8.0,Calm,Calm,-,N/A,,Clear,0,2013-08-01 05:55:00
1:15 AM,69.8,64.4,83,30.13,10.0,ESE,3.5,-,N/A,,Clear,110,2013-08-01 06:15:00
1:35 AM,69.8,64.4,83,30.13,10.0,Calm,Calm,-,N/A,,Clear,0,2013-08-01 06:35:00
1:55 AM,68.0,64.4,88,30.12,9.0,Calm,Calm,-,N/A,,Clear,0,2013-08-01 06:55:00
2:15 AM,68.0,64.4,88,30.12,10.0,SE,4.6,-,N/A,,Clear,130,2013-08-01 07:15:00
2:35 AM,68.0,64.4,88,30.11,10.0,ESE,5.8,-,N/A,,Clear,120,2013-08-01 07:35:00
2:55 AM,69.8,64.4,83,30.10,10.0,ESE,6.9,-,N/A,,Clear,110,2013-08-01 07:55:00
3:15 AM,69.8,64.4,83,30.11,10.0,East,3.5,-,N/A,,Clear,80,2013-08-01 08:15:00
3:35 AM,66.2,64.4,94,30.12,10.0,SW,6.9,-,N/A,,Clear,230,2013-08-01 08:35:00
3:55 AM,66.2,64.4,94,30.12,10.0,SW,6.9,-,N/A,,Clear,230,2013-08-01 08:55:00
4:15 AM,66.2,62.6,88,30.14,10.0,SW,6.9,-,N/A,,Clear,230,2013-08-01 09:15:00
4:35 AM,66.2,64.4,94,30.14,9.0,WSW,6.9,-,N/A,,Clear,240,2013-08-01 09:35:00
4:55 AM,66.2,62.6,88,30.14,6.0,West,4.6,-,N/A,,Clear,260,2013-08-01 09:55:00
5:15 AM,66.2,62.6,88,30.15,5.0,NW,6.9,-,N/A,,Clear,310,2013-08-01 10:15:00
5:35 AM,66.2,62.6,88,30.15,5.0,Calm,Calm,-,N/A,,Clear,0,2013-08-01 10:35:00
5:55 AM,64.4,62.6,94,30.14,4.0,Calm,Calm,-,N/A,,Clear,0,2013-08-01 10:55:00
6:15 AM,66.2,62.6,88,30.14,5.0,Calm,Calm,-,N/A,,Clear,0,2013-08-01 11:15:00
6:35 AM,64.4,62.6,94,30.13,3.0,Calm,Calm,-,N/A,,Clear,0,2013-08-01 11:35:00
6:55 AM,64.4,60.8,88,30.14,3.0,Calm,Calm,-,N/A,,Clear,0,2013-08-01 11:55:00
7:15 AM,64.4,62.6,94,30.14,3.0,Calm,Calm,-,N/A,,Clear,0,2013-08-01 12:15:00
7:35 AM,66.2,62.6,88,30.14,5.0,Calm,Calm,-,N/A,,Clear,0,2013-08-01 12:35:00
7:55 AM,68.0,64.4,88,30.14,5.0,Calm,Calm,-,N/A,,Clear,0,2013-08-01 12:55:00
8:15 AM,69.8,64.4,83,30.14,7.0,SSE,4.6,-,N/A,,Clear,160,2013-08-01 13:15:00
8:35 AM,71.6,66.2,83,30.14,8.0,SSE,6.9,-,N/A,,Clear,160,2013-08-01 13:35:00
8:55 AM,73.4,66.2,78,30.13,10.0,SSE,5.8,-,N/A,,Clear,160,2013-08-01 13:55:00
9:15 AM,75.2,66.2,73,30.13,10.0,SSE,9.2,-,N/A,,Clear,160,2013-08-01 14:15:00
9:35 AM,75.2,68.0,78,30.13,10.0,South,9.2,-,N/A,,Clear,170,2013-08-01 14:35:00
9:55 AM,78.8,66.2,65,30.13,10.0,South,12.7,-,N/A,,Clear,180,2013-08-01 14:55:00
10:15 AM,78.8,66.2,65,30.12,10.0,South,13.8,-,N/A,,Clear,170,2013-08-01 15:15:00
10:35 AM,80.6,68.0,65,30.11,10.0,South,10.4,16.1,N/A,,Clear,170,2013-08-01 15:35:00
10:55 AM,80.6,68.0,65,30.11,10.0,SSE,13.8,-,N/A,,Clear,160,2013-08-01 15:55:00
11:15 AM,82.4,66.2,58,30.11,10.0,SSE,16.1,-,N/A,,Clear,150,2013-08-01 16:15:00
11:35 AM,82.4,66.2,58,30.10,10.0,SSE,15.0,19.6,N/A,,Clear,160,2013-08-01 16:35:00
11:55 AM,84.2,66.2,55,30.10,10.0,SSE,15.0,-,N/A,,Partly Cloudy,150,2013-08-01 16:55:00
12:15 PM,84.2,68.0,58,30.09,10.0,South,13.8,19.6,N/A,,Partly Cloudy,170,2013-08-01 17:15:00
12:35 PM,84.2,68.0,58,30.09,10.0,SSE,12.7,19.6,N/A,,Clear,160,2013-08-01 17:35:00
12:55 PM,84.2,68.0,58,30.08,10.0,SSE,13.8,21.9,N/A,,Partly Cloudy,150,2013-08-01 17:55:00
1:15 PM,84.2,68.0,58,30.08,10.0,SSE,12.7,20.7,N/A,,Partly Cloudy,160,2013-08-01 18:15:00
1:35 PM,86.0,68.0,55,30.07,10.0,SSE,15.0,-,N/A,,Clear,160,2013-08-01 18:35:00
1:55 PM,87.8,66.2,49,30.06,10.0,SSE,11.5,20.7,N/A,,Clear,160,2013-08-01 18:55:00
2:15 PM,87.8,66.2,49,30.06,5.0,SSE,15.0,19.6,N/A,,Clear,160,2013-08-01 19:15:00
2:35 PM,87.8,66.2,49,30.04,10.0,SSE,15.0,20.7,N/A,,Clear,160,2013-08-01 19:35:00
2:55 PM,87.8,66.2,49,30.04,10.0,SSE,12.7,20.7,N/A,,Clear,150,2013-08-01 19:55:00
3:15 PM,87.8,66.2,49,30.03,10.0,SE,18.4,23.0,N/A,,Clear,140,2013-08-01 20:15:00
3:35 PM,89.6,66.2,46,30.02,10.0,SSE,19.6,24.2,N/A,,Partly Cloudy,150,2013-08-01 20:35:00
3:55 PM,89.6,64.4,43,30.01,10.0,SSE,17.3,25.3,N/A,,Partly Cloudy,150,2013-08-01 20:55:00
4:15 PM,89.6,66.2,46,30.00,10.0,SSE,18.4,24.2,N/A,,Partly Cloudy,150,2013-08-01 21:15:00
4:35 PM,89.6,66.2,46,29.99,10.0,SE,19.6,24.2,N/A,,Clear,140,2013-08-01 21:35:00
4:55 PM,89.6,64.4,43,29.98,10.0,SSE,20.7,25.3,N/A,,Clear,150,2013-08-01 21:55:00
5:15 PM,89.6,64.4,43,29.97,10.0,SSE,16.1,26.5,N/A,,Clear,150,2013-08-01 22:15:00
5:35 PM,89.6,64.4,43,29.96,10.0,SSE,18.4,25.3,N/A,,Clear,150,2013-08-01 22:35:00
5:55 PM,89.6,64.4,43,29.95,10.0,SSE,20.7,25.3,N/A,,Clear,150,2013-08-01 22:55:00
6:15 PM,87.8,64.4,46,29.95,10.0,SSE,19.6,-,N/A,,Clear,150,2013-08-01 23:15:00
6:35 PM,87.8,64.4,46,29.95,10.0,SSE,16.1,-,N/A,,Clear,150,2013-08-01 23:35:00
6:55 PM,87.8,64.4,46,29.94,10.0,SSE,17.3,20.7,N/A,,Clear,150,2013-08-01 23:55:00
7:15 PM,87.8,62.6,43,29.94,10.0,SSE,13.8,-,N/A,,Clear,160,2013-08-02 00:15:00
7:35 PM,86.0,62.6,45,29.93,10.0,SSE,16.1,21.9,N/A,,Clear,150,2013-08-02 00:35:00
7:55 PM,82.4,64.4,54,29.93,10.0,SSE,15.0,-,N/A,,Clear,150,2013-08-02 00:55:00
8:15 PM,82.4,64.4,54,29.93,10.0,SSE,12.7,-,N/A,,Clear,150,2013-08-02 01:15:00
8:35 PM,80.6,64.4,58,29.91,10.0,SSE,15.0,-,N/A,,Clear,150,2013-08-02 01:35:00
8:55 PM,80.6,64.4,58,29.91,10.0,SSE,13.8,-,N/A,,Clear,160,2013-08-02 01:55:00
9:15 PM,80.6,64.4,58,29.92,10.0,SSE,12.7,-,N/A,,Clear,160,2013-08-02 02:15:00
9:35 PM,78.8,64.4,61,29.92,10.0,SSE,12.7,-,N/A,,Clear,160,2013-08-02 02:35:00
9:55 PM,78.8,64.4,61,29.92,10.0,SSE,13.8,-,N/A,,Clear,160,2013-08-02 02:55:00
10:15 PM,78.8,64.4,61,29.90,10.0,SSE,13.8,-,N/A,,Clear,160,2013-08-02 03:15:00
10:35 PM,78.8,64.4,61,29.90,10.0,South,17.3,-,N/A,,Clear,170,2013-08-02 03:35:00
10:55 PM,78.8,64.4,61,29.91,10.0,South,18.4,23.0,N/A,,Clear,180,2013-08-02 03:55:00
11:15 PM,78.8,64.4,61,29.90,10.0,South,21.9,26.5,N/A,,Clear,170,2013-08-02 04:15:00
11:35 PM,78.8,64.4,61,29.89,10.0,South,20.7,26.5,N/A,,Clear,180,2013-08-02 04:35:00
11:55 PM,78.8,66.2,65,29.91,10.0,SSW,17.3,27.6,N/A,,Mostly Cloudy,200,2013-08-02 04:55:00